Location: State Camp
(41.2367°N, 77.7828°W)
Time: 10:36:33
(UTC-04:00)

ADEOS Rocket - Visible Passes

Search period start: 24 July 2014 00:00
Search period end: 03 August 2014 00:00
Orbit: 858 x 1308 km, 98.7° (Epoch: 22 July)

Date Brightness Start Highest point End Pass type
(mag) Time Alt. Az. Time Alt. Az. Time Alt. Az.
24 Jul 3.0 22:12:05 19° SSE 22:16:53 79° ENE 22:22:45 10° N visible
24 Jul 5.2 23:59:22 10° SW 00:02:52 15° W 00:06:13 10° WNW visible
25 Jul 3.9 21:22:40 10° SE 21:28:11 33° ENE 21:33:18 10° N visible
25 Jul 4.1 23:09:38 19° SSW 23:13:38 38° W 23:19:04 10° NNW visible
26 Jul 3.0 22:20:12 21° SSE 22:24:40 90° WSW 22:30:30 10° NNW visible
27 Jul 5.3 00:08:28 10° WSW 00:10:47 12° W 00:13:02 10° WNW visible
27 Jul 3.6 21:30:46 12° SE 21:35:56 38° ENE 21:41:11 10° N visible
27 Jul 4.3 23:17:44 18° SSW 23:21:29 32° W 23:26:37 10° NW visible
28 Jul 3.0 22:28:18 22° S 22:32:28 78° WSW 22:38:13 10° NNW visible
29 Jul 3.4 21:38:52 15° SE 21:43:41 44° ENE 21:49:02 10° N visible
29 Jul 4.5 23:25:50 16° SW 23:29:20 27° W 23:34:07 10° NW visible
30 Jul 3.2 22:36:24 23° S 22:40:16 66° WSW 22:45:55 10° NNW visible
31 Jul 3.2 21:46:58 17° SE 21:51:25 51° ENE 21:56:52 10° N visible
31 Jul 4.7 23:33:56 15° SW 23:37:11 22° W 23:41:33 10° NW visible
01 Aug 4.3 20:58:33 10° ESE 21:02:52 22° ENE 21:06:59 10° NNE visible
01 Aug 3.4 22:44:30 24° S 22:48:04 56° W 22:53:36 10° NNW visible
02 Aug 3.0 21:55:04 20° SE 21:59:11 60° ENE 22:04:40 10° N visible
02 Aug 4.9 23:42:02 13° SW 23:45:03 18° W 23:48:53 10° NW visible
